OK,114,42,666,114,2014-10-01T01:40:00,0,28071993,182766
OK,82,58,666,82,2014-10-01T01:45:00,0,28072436,182766
OK,82,58,666,82,2014-10-01T01:50:00,0,28072885,182766
OK,82,58,666,82,2014-10-01T01:55:00,0,28073332,182766
OK,136,35,666,136,2014-10-01T02:05:00,1,28074098,182766
OK,135,35,666,135,2014-10-01T02:10:00,1,28074547,182766
OK,135,35,666,135,2014-10-01T02:15:00,0,28074987,182766
OK,135,35,666,135,2014-10-01T02:20:00,0,28075436,182766
OK,135,35,666,135,2014-10-01T02:25:00,0,28075885,182766
OK,135,35,666,135,2014-10-01T02:30:00,0,28076268,182766
OK,135,35,666,135,2014-10-01T02:35:00,0,28076717,182766
OK,135,35,666,135,2014-10-01T02:40:00,0,28077166,182766
OK,135,35,666,135,2014-10-01T02:45:00,0,28077615,182766
OK,101,47,666,101,2014-10-01T02:50:00,1,28078018,182766
OK,101,47,666,101,2014-10-01T02:55:00,1,28078467,182766
OK,80,60,666,80,2014-10-01T03:00:00,3,28078912,182766
OK,80,60,666,80,2014-10-01T03:05:00,2,28079360,182766
OK,80,60,666,80,2014-10-01T03:10:00,0,28079803,182766
OK,80,60,666,80,2014-10-01T03:15:00,0,28080252,182766
OK,80,60,666,80,2014-10-01T03:20:00,0,28080586,182766
OK,96,50,666,96,2014-10-01T03:25:00,2,28081035,182766
OK,116,41,666,116,2014-10-01T03:30:00,2,28081484,182766
OK,132,36,666,132,2014-10-01T03:35:00,0,28081931,182766
OK,108,44,666,108,2014-10-01T03:40:00,5,28082380,182766
OK,107,44,666,107,2014-10-01T03:45:00,7,28082813,182766
OK,95,50,666,95,2014-10-01T03:50:00,4,28083245,182766
OK,99,48,666,99,2014-10-01T03:55:00,2,28083694,182766
OK,85,56,666,85,2014-10-01T04:00:00,5,28084143,182766
OK,113,42,666,113,2014-10-01T04:05:00,5,28084584,182766
OK,97,49,666,97,2014-10-01T04:10:00,4,28085009,182766
OK,88,54,666,88,2014-10-01T04:15:00,3,28085458,182766
OK,88,54,666,88,2014-10-01T04:20:00,5,28085903,182766
OK,110,43,666,110,2014-10-01T04:25:00,9,28086352,182766
OK,105,45,666,105,2014-10-01T04:30:00,4,28086794,182766
OK,126,38,666,126,2014-10-01T04:35:00,7,28087243,182766
OK,118,40,666,118,2014-10-01T04:40:00,12,28087688,182766
OK,97,49,666,97,2014-10-01T04:45:00,7,28088137,182766
OK,119,40,666,119,2014-10-01T04:50:00,13,28088561,182766
OK,121,39,666,121,2014-10-01T04:55:00,12,28089010,182766
OK,138,34,666,138,2014-10-01T05:00:00,7,28089440,182766
OK,134,35,666,134,2014-10-01T05:05:00,9,28089889,182766
OK,121,39,666,121,2014-10-01T05:10:00,12,28090338,182766
OK,118,40,666,118,2014-10-01T05:15:00,6,28090682,182766
OK,120,40,666,120,2014-10-01T05:20:00,8,28091131,182766
OK,112,42,666,112,2014-10-01T05:25:00,10,28091580,182766
OK,125,38,666,125,2014-10-01T05:30:00,14,28091997,182766
OK,129,37,666,129,2014-10-01T05:35:00,18,28092446,182766
OK,140,34,666,140,2014-10-01T05:40:00,21,28092890,182766
OK,178,27,666,178,2014-10-01T05:45:00,21,28093331,182766
OK,219,21,666,219,2014-10-01T05:50:00,14,28093762,182766
OK,226,21,666,226,2014-10-01T05:55:00,11,28094211,182766
OK,263,18,666,263,2014-10-01T06:00:00,14,28094622,182766
OK,271,17,666,271,2014-10-01T06:05:00,12,28095067,182766
OK,263,18,666,263,2014-10-01T06:10:00,15,28095514,182766
OK,259,18,666,259,2014-10-01T06:15:00,15,28095963,182766
OK,285,16,666,285,2014-10-01T06:20:00,17,28096376,182766
OK,285,16,666,285,2014-10-01T06:25:00,19,28096825,182766
OK,257,18,666,257,2014-10-01T06:30:00,13,28097259,182766
OK,224,21,666,224,2014-10-01T06:35:00,22,28097708,182766
OK,216,22,666,216,2014-10-01T06:40:00,14,28098157,182766
OK,222,21,666,222,2014-10-01T06:45:00,10,28098594,182766
OK,193,24,666,193,2014-10-01T06:50:00,16,28099038,182766
OK,131,36,666,131,2014-10-01T06:55:00,18,28099486,182766
OK,128,37,666,128,2014-10-01T07:00:00,11,28099829,182766
OK,133,36,666,133,2014-10-01T07:05:00,9,28100276,182766
OK,130,37,666,130,2014-10-01T07:10:00,11,28100585,182766
OK,128,37,666,128,2014-10-01T07:15:00,12,28101034,182766
OK,130,37,666,130,2014-10-01T07:20:00,12,28101405,182766
OK,121,39,666,121,2014-10-01T07:25:00,10,28101854,182766
OK,137,35,666,137,2014-10-01T07:30:00,12,28102290,182766
OK,134,35,666,134,2014-10-01T07:35:00,8,28102739,182766
OK,127,37,666,127,2014-10-01T07:40:00,9,28103166,182766
OK,117,41,666,117,2014-10-01T07:45:00,10,28103613,182766
OK,115,41,666,115,2014-10-01T07:50:00,8,28104058,182766
OK,137,35,666,137,2014-10-01T07:55:00,16,28104503,182766
OK,142,33,666,142,2014-10-01T08:00:00,17,28104944,182766
OK,128,37,666,128,2014-10-01T08:05:00,10,28105389,182766
OK,126,38,666,126,2014-10-01T08:10:00,7,28105829,182766
OK,113,42,666,113,2014-10-01T08:15:00,9,28106278,182766
OK,113,42,666,113,2014-10-01T08:20:00,11,28106715,182766
OK,141,34,666,141,2014-10-01T08:25:00,10,28107121,182766
OK,138,34,666,138,2014-10-01T08:30:00,10,28107553,182766
OK,123,39,666,123,2014-10-01T08:35:00,10,28108002,182766
OK,115,41,666,115,2014-10-01T08:40:00,15,28108441,182766
OK,131,36,666,131,2014-10-01T08:45:00,15,28108890,182766
OK,134,35,666,134,2014-10-01T08:50:00,11,28109318,182766
OK,127,37,666,127,2014-10-01T08:55:00,10,28109767,182766
OK,131,36,666,131,2014-10-01T09:00:00,8,28110110,182766
OK,128,37,666,128,2014-10-01T09:05:00,13,28110559,182766
OK,107,44,666,107,2014-10-01T09:10:00,10,28110982,182766
OK,105,45,666,105,2014-10-01T09:15:00,7,28111431,182766
OK,125,38,666,125,2014-10-01T09:20:00,2,28111860,182766
OK,112,42,666,112,2014-10-01T09:25:00,7,28112309,182766
OK,116,41,666,116,2014-10-01T09:30:00,8,28112650,182766
OK,120,40,666,120,2014-10-01T09:35:00,5,28113099,182766
OK,103,46,666,103,2014-10-01T09:40:00,13,28113523,182766
OK,118,40,666,118,2014-10-01T09:45:00,14,28113972,182766
OK,119,40,666,119,2014-10-01T09:50:00,14,28114404,182766
OK,119,40,666,119,2014-10-01T09:55:00,21,28114853,182766
OK,141,34,666,141,2014-10-01T10:00:00,15,28115207,182766
OK,119,40,666,119,2014-10-01T10:05:00,10,28115656,182766
OK,121,39,666,121,2014-10-01T10:10:00,7,28116068,182766
OK,114,42,666,114,2014-10-01T10:15:00,7,28116517,182766
OK,125,38,666,125,2014-10-01T10:20:00,11,28116925,182766
OK,125,38,666,125,2014-10-01T10:25:00,9,28117374,182766
OK,103,46,666,103,2014-10-01T10:30:00,14,28117799,182766
OK,107,44,666,107,2014-10-01T10:35:00,11,28118248,182766
OK,110,43,666,110,2014-10-01T10:40:00,11,28118693,182766
OK,109,44,666,109,2014-10-01T10:45:00,9,28119140,182766
OK,116,41,666,116,2014-10-01T10:50:00,6,28119584,182766
OK,121,39,666,121,2014-10-01T10:55:00,10,28120032,182766
OK,114,42,666,114,2014-10-01T11:00:00,12,28120480,182766
OK,113,42,666,113,2014-10-01T11:05:00,11,28120929,182766
OK,125,38,666,125,2014-10-01T11:10:00,7,28121312,182766
OK,118,40,666,118,2014-10-01T11:15:00,12,28121761,182766
OK,115,41,666,115,2014-10-01T11:20:00,15,28122199,182766
OK,113,42,666,113,2014-10-01T11:25:00,15,28122648,182766
OK,115,41,666,115,2014-10-01T11:30:00,7,28123089,182766
OK,97,49,666,97,2014-10-01T11:35:00,4,28123538,182766
OK,127,37,666,127,2014-10-01T11:40:00,6,28123970,182766
OK,128,37,666,128,2014-10-01T11:45:00,10,28124419,182766
OK,125,38,666,125,2014-10-01T11:50:00,13,28124821,182766
OK,119,40,666,119,2014-10-01T11:55:00,12,28125270,182766
OK,119,40,666,119,2014-10-01T12:00:00,8,28125699,182766
OK,123,39,666,123,2014-10-01T12:05:00,8,28126148,182766
OK,123,39,666,123,2014-10-01T12:10:00,10,28126500,182766
OK,117,41,666,117,2014-10-01T12:15:00,9,28126949,182766
OK,117,41,666,117,2014-10-01T12:20:00,11,28127398,182766
OK,120,40,666,120,2014-10-01T12:25:00,6,28127847,182766
OK,133,36,666,133,2014-10-01T12:30:00,6,28128275,182766
OK,126,38,666,126,2014-10-01T12:35:00,11,28128724,182766
OK,119,40,666,119,2014-10-01T12:40:00,13,28129159,182766
OK,129,37,666,129,2014-10-01T12:45:00,10,28129608,182766
OK,113,42,666,113,2014-10-01T12:50:00,6,28130042,182766
OK,109,44,666,109,2014-10-01T12:55:00,5,28130491,182766
OK,107,44,666,107,2014-10-01T13:00:00,2,28130919,182766
OK,121,39,666,121,2014-10-01T13:05:00,7,28131368,182766
OK,119,40,666,119,2014-10-01T13:10:00,10,28131805,182766
OK,140,34,666,140,2014-10-01T13:15:00,8,28132254,182766
OK,119,40,666,119,2014-10-01T13:20:00,7,28132692,182766
OK,119,40,666,119,2014-10-01T13:25:00,5,28133139,182766
OK,117,41,666,117,2014-10-01T13:30:00,4,28133577,182766
OK,119,40,666,119,2014-10-01T13:35:00,7,28134026,182766
OK,111,43,666,111,2014-10-01T13:40:00,5,28134465,182766
OK,117,41,666,117,2014-10-01T13:45:00,9,28134914,182766
OK,119,40,666,119,2014-10-01T13:50:00,12,28135333,182766
OK,136,35,666,136,2014-10-01T13:55:00,8,28135782,182766
OK,101,47,666,101,2014-10-01T14:00:00,6,28136219,182766
OK,108,44,666,108,2014-10-01T14:05:00,4,28136668,182766
OK,103,46,666,103,2014-10-01T14:10:00,11,28137108,182766
OK,103,46,666,103,2014-10-01T14:15:00,7,28137557,182766
OK,139,34,666,139,2014-10-01T14:20:00,14,28137991,182766
OK,136,35,666,136,2014-10-01T14:25:00,12,28138440,182766
OK,123,39,666,123,2014-10-01T14:30:00,12,28138868,182766
OK,134,35,666,134,2014-10-01T14:35:00,10,28139317,182766
OK,124,38,666,124,2014-10-01T14:40:00,14,28139728,182766
OK,122,39,666,122,2014-10-01T14:45:00,7,28140177,182766
OK,168,28,666,168,2014-10-01T14:50:00,6,28140619,182766
OK,150,32,666,150,2014-10-01T14:55:00,9,28141068,182766
OK,128,37,666,128,2014-10-01T15:00:00,14,28141494,182766
OK,128,37,666,128,2014-10-01T15:05:00,11,28141943,182766
OK,132,36,666,132,2014-10-01T15:10:00,17,28142371,182766
OK,113,42,666,113,2014-10-01T15:15:00,23,28142820,182766
OK,113,42,666,113,2014-10-01T15:20:00,15,28143247,182766
OK,126,38,666,126,2014-10-01T15:25:00,12,28143696,182766
OK,123,39,666,123,2014-10-01T15:30:00,15,28144144,182766
OK,120,40,666,120,2014-10-01T15:35:00,10,28144593,182766
OK,107,44,666,107,2014-10-01T15:40:00,11,28145014,182766
OK,118,40,666,118,2014-10-01T15:45:00,9,28145428,182766
OK,116,41,666,116,2014-10-01T15:50:00,7,28145877,182766
OK,121,39,666,121,2014-10-01T15:55:00,5,28146326,182766
OK,121,39,666,121,2014-10-01T16:00:00,5,28146775,182766
OK,134,35,666,134,2014-10-01T16:05:00,3,28147183,182766
OK,134,35,666,134,2014-10-01T16:10:00,5,28147627,182766
OK,129,37,666,129,2014-10-01T16:15:00,7,28148076,182766
OK,104,46,666,104,2014-10-01T16:20:00,5,28148477,182766
OK,110,43,666,110,2014-10-01T16:25:00,6,28148926,182766
OK,112,42,666,112,2014-10-01T16:30:00,9,28149365,182766
OK,114,42,666,114,2014-10-01T16:35:00,8,28149814,182766
OK,113,42,666,113,2014-10-01T16:40:00,8,28150240,182766
OK,122,39,666,122,2014-10-01T16:45:00,6,28150689,182766
OK,107,44,666,107,2014-10-01T16:50:00,4,28151107,182766
OK,97,49,666,97,2014-10-01T16:55:00,5,28151556,182766
OK,112,42,666,112,2014-10-01T17:05:00,6,28152005,182766
OK,114,42,666,114,2014-10-01T17:10:00,4,28152454,182766
OK,93,51,666,93,2014-10-01T17:15:00,4,28152900,182766
OK,79,60,666,79,2014-10-01T17:20:00,2,28153347,182766
OK,103,46,666,103,2014-10-01T17:25:00,4,28153796,182766
OK,131,36,666,131,2014-10-01T17:30:00,6,28154206,182766
OK,128,37,666,128,2014-10-01T17:35:00,7,28154655,182766
OK,129,37,666,129,2014-10-01T17:40:00,3,28155097,182766
OK,110,43,666,110,2014-10-01T17:45:00,5,28155545,182766
OK,98,49,666,98,2014-10-01T17:50:00,5,28155963,182766
OK,79,60,666,79,2014-10-01T17:55:00,2,28156412,182766
OK,92,52,666,92,2014-10-01T18:00:00,2,28156860,182766
OK,125,38,666,125,2014-10-01T18:05:00,5,28157299,182766
OK,115,41,666,115,2014-10-01T18:10:00,7,28157729,182766
OK,104,46,666,104,2014-10-01T18:15:00,7,28158177,182766
OK,93,51,666,93,2014-10-01T18:20:00,5,28158621,182766
OK,94,51,666,94,2014-10-01T18:25:00,4,28159066,182766
OK,121,39,666,121,2014-10-01T18:35:00,0,28159848,182766
OK,88,54,666,88,2014-10-01T18:40:00,1,28160297,182766
OK,105,45,666,105,2014-10-01T18:45:00,2,28160746,182766
OK,117,41,666,117,2014-10-01T18:50:00,2,28161184,182766
OK,111,43,666,111,2014-10-01T18:55:00,1,28161633,182766
OK,90,53,666,90,2014-10-01T19:00:00,1,28162050,182766
OK,90,53,666,90,2014-10-01T19:05:00,1,28162499,182766
OK,90,53,666,90,2014-10-01T19:10:00,0,28162893,182766
OK,90,53,666,90,2014-10-01T19:15:00,0,28163332,182766
OK,91,52,666,91,2014-10-01T19:20:00,1,28163780,182766
OK,104,46,666,104,2014-10-01T19:25:00,2,28164229,182766
OK,115,41,666,115,2014-10-01T19:30:00,2,28164660,182766
OK,97,49,666,97,2014-10-01T19:35:00,2,28165109,182766
OK,82,58,666,82,2014-10-01T19:40:00,0,28165534,182766
OK,82,58,666,82,2014-10-01T19:45:00,0,28165982,182766
OK,81,59,666,81,2014-10-01T19:50:00,1,28166421,182766
OK,84,57,666,84,2014-10-01T19:55:00,3,28166785,182766
OK,94,51,666,94,2014-10-01T20:00:00,0,28167234,182766
OK,89,54,666,89,2014-10-01T20:05:00,1,28167663,182766
OK,89,54,666,89,2014-10-01T20:10:00,1,28168096,182766
OK,89,54,666,89,2014-10-01T20:15:00,0,28168545,182766
OK,89,54,666,89,2014-10-01T20:20:00,0,28168990,182766
OK,89,54,666,89,2014-10-01T20:25:00,0,28169439,182766
OK,91,52,666,91,2014-10-01T20:30:00,1,28169887,182766
OK,91,52,666,91,2014-10-01T20:35:00,1,28170313,182766
OK,91,52,666,91,2014-10-01T20:40:00,0,28170758,182766
OK,83,57,666,83,2014-10-01T20:45:00,1,28171206,182766
OK,83,57,666,83,2014-10-01T20:50:00,1,28171643,182766
OK,83,57,666,83,2014-10-01T20:55:00,0,28172089,182766
OK,81,59,666,81,2014-10-01T21:00:00,1,28172537,182766
OK,81,59,666,81,2014-10-01T21:05:00,1,28172983,182766
OK,81,59,666,81,2014-10-01T21:10:00,0,28173429,182766
OK,81,59,666,81,2014-10-01T21:15:00,0,28173878,182766
OK,109,44,666,109,2014-10-01T21:20:00,1,28174319,182766
OK,109,44,666,109,2014-10-01T21:25:00,1,28174768,182766
OK,74,65,666,74,2014-10-01T21:30:00,1,28175194,182766
OK,74,65,666,74,2014-10-01T21:35:00,1,28175590,182766
OK,74,65,666,74,2014-10-01T21:40:00,0,28176039,182766
OK,74,65,666,74,2014-10-01T21:45:00,0,28176488,182766
OK,74,65,666,74,2014-10-01T21:50:00,0,28176937,182766
OK,74,65,666,74,2014-10-01T21:55:00,0,28177293,182766
OK,74,65,666,74,2014-10-01T22:00:00,0,28177733,182766
OK,74,65,666,74,2014-10-01T22:05:00,0,28178179,182766
OK,104,46,666,104,2014-10-01T22:10:00,1,28178628,182766
OK,104,46,666,104,2014-10-01T22:15:00,0,28179075,182766
OK,104,46,666,104,2014-10-01T22:20:00,0,28179509,182766
OK,104,46,666,104,2014-10-01T22:25:00,0,28179952,182766
OK,104,46,666,104,2014-10-01T22:30:00,0,28180399,182766
OK,104,46,666,104,2014-10-01T22:35:00,0,28180797,182766
OK,104,46,666,104,2014-10-01T22:40:00,0,28181246,182766
OK,104,46,666,104,2014-10-01T22:45:00,0,28181670,182766
OK,104,46,666,104,2014-10-01T22:50:00,0,28182118,182766
OK,104,46,666,104,2014-10-01T22:55:00,0,28182565,182766
OK,104,46,666,104,2014-10-01T23:00:00,0,28183014,182766
OK,106,45,666,106,2014-10-01T23:05:00,1,28183431,182766
OK,106,45,666,106,2014-10-01T23:10:00,1,28183864,182766
OK,106,45,666,106,2014-10-01T23:15:00,0,28184309,182766
OK,106,45,666,106,2014-10-01T23:20:00,0,28184758,182766
OK,106,45,666,106,2014-10-01T23:25:00,0,28185193,182766
OK,106,45,666,106,2014-10-01T23:30:00,0,28185641,182766
OK,85,56,666,85,2014-10-01T23:40:00,1,28186464,182766
OK,85,56,666,85,2014-10-01T23:45:00,0,28187306,182766
OK,85,56,666,85,2014-10-01T23:55:00,0,28187753,182766
OK,85,56,666,85,2014-10-02T00:00:00,0,28188202,182766
OK,85,56,666,85,2014-10-02T00:05:00,0,28188642,182766
OK,85,56,666,85,2014-10-02T00:10:00,0,28189079,182766
OK,85,56,666,85,2014-10-02T00:15:00,0,28189528,182766
OK,85,56,666,85,2014-10-02T00:20:00,0,28189950,182766
OK,85,56,666,85,2014-10-02T00:25:00,0,28190395,182766
OK,85,56,666,85,2014-10-02T00:30:00,0,28190752,182766
OK,77,62,666,77,2014-10-02T00:35:00,0,28191201,182766
OK,77,62,666,77,2014-10-02T00:45:00,0,28191956,182766
OK,77,62,666,77,2014-10-02T00:50:00,0,28192405,182766
OK,77,62,666,77,2014-10-02T00:55:00,0,28192838,182766
OK,77,62,666,77,2014-10-02T01:00:00,0,28193258,182766
OK,77,62,666,77,2014-10-02T01:05:00,0,28193649,182766
OK,77,62,666,77,2014-10-02T01:10:00,0,28194098,182766
OK,77,62,666,77,2014-10-02T01:15:00,0,28194547,182766
OK,77,62,666,77,2014-10-02T01:20:00,0,28194987,182766
OK,77,62,666,77,2014-10-02T01:25:00,0,28195232,182766
OK,77,62,666,77,2014-10-02T01:30:00,0,28195681,182766
OK,77,62,666,77,2014-10-02T01:35:00,0,28196130,182766
OK,77,62,666,77,2014-10-02T01:40:00,0,28196414,182766
OK,77,62,666,77,2014-10-02T01:45:00,0,28196863,182766
OK,77,62,666,77,2014-10-02T01:50:00,0,28197286,182766
OK,77,62,666,77,2014-10-02T01:55:00,0,28197735,182766
OK,77,62,666,77,2014-10-02T02:00:00,0,28198183,182766
OK,98,49,666,98,2014-10-02T02:05:00,0,28198631,182766
OK,98,49,666,98,2014-10-02T02:10:00,0,28199080,182766
OK,98,49,666,98,2014-10-02T02:15:00,0,28199452,182766
OK,98,49,666,98,2014-10-02T02:20:00,0,28199894,182766
OK,98,49,666,98,2014-10-02T02:25:00,0,28200336,182766
OK,98,49,666,98,2014-10-02T02:30:00,0,28200779,182766
OK,98,49,666,98,2014-10-02T02:35:00,0,28201228,182766
OK,98,49,666,98,2014-10-02T02:45:00,0,28201659,182766
OK,98,49,666,98,2014-10-02T02:50:00,0,28202108,182766
OK,98,49,666,98,2014-10-02T02:55:00,0,28202557,182766
OK,98,49,666,98,2014-10-02T03:00:00,0,28202999,182766
OK,98,49,666,98,2014-10-02T03:05:00,0,28203447,182766
OK,98,49,666,98,2014-10-02T03:15:00,0,28203882,182766
OK,91,52,666,91,2014-10-02T03:30:00,0,28204331,182766
OK,74,65,666,74,2014-10-02T03:35:00,7,28204780,182766
OK,101,47,666,101,2014-10-02T03:40:00,0,28205229,182766
OK,85,56,666,85,2014-10-02T03:45:00,3,28205657,182766
OK,85,56,666,85,2014-10-02T03:50:00,0,28206086,182766
OK,85,56,666,85,2014-10-02T03:55:00,0,28206487,182766
OK,95,50,666,95,2014-10-02T04:00:00,1,28206936,182766
OK,95,50,666,95,2014-10-02T04:05:00,0,28207385,182766
OK,93,51,666,93,2014-10-02T04:10:00,2,28207804,182766
OK,101,47,666,101,2014-10-02T04:15:00,1,28208253,182766
OK,107,44,666,107,2014-10-02T04:20:00,7,28208680,182766
OK,98,49,666,98,2014-10-02T04:25:00,0,28209129,182766
OK,88,54,666,88,2014-10-02T04:30:00,2,28209567,182766
OK,87,55,666,87,2014-10-02T04:35:00,1,28210016,182766
OK,100,48,666,100,2014-10-02T04:40:00,2,28210439,182766
OK,99,48,666,99,2014-10-02T04:45:00,0,28210888,182766
OK,99,48,666,99,2014-10-02T04:50:00,0,28211313,182766
OK,120,40,666,120,2014-10-02T04:55:00,7,28211757,182766
OK,115,41,666,115,2014-10-02T05:00:00,2,28212135,182766
OK,117,41,666,117,2014-10-02T05:05:00,4,28212584,182766
OK,91,52,666,91,2014-10-02T05:10:00,0,28213013,182766
OK,99,48,666,99,2014-10-02T05:15:00,7,28213462,182766
OK,132,36,666,132,2014-10-02T05:20:00,1,28213900,182766
OK,102,47,666,102,2014-10-02T05:25:00,11,28214349,182766
OK,97,49,666,97,2014-10-02T05:30:00,2,28214762,182766
OK,97,49,666,97,2014-10-02T05:35:00,0,28215211,182766
OK,134,35,666,134,2014-10-02T05:40:00,14,28215627,182766
OK,106,45,666,106,2014-10-02T05:45:00,6,28216076,182766
OK,106,45,666,106,2014-10-02T05:50:00,0,28216415,182766
OK,145,33,666,145,2014-10-02T05:55:00,19,28216855,182766
OK,147,32,666,147,2014-10-02T06:00:00,15,28217302,182766
OK,176,27,666,176,2014-10-02T06:05:00,7,28217751,182766
OK,185,26,666,185,2014-10-02T06:10:00,3,28218190,182766
OK,163,29,666,163,2014-10-02T06:15:00,13,28218639,182766
OK,155,31,666,155,2014-10-02T06:20:00,17,28219059,182766
OK,159,30,666,159,2014-10-02T06:25:00,24,28219508,182766
OK,189,25,666,189,2014-10-02T06:30:00,17,28219881,182766
OK,131,36,666,131,2014-10-02T06:35:00,10,28220330,182766
OK,111,43,666,111,2014-10-02T06:40:00,14,28220764,182766
OK,129,37,666,129,2014-10-02T06:45:00,15,28221213,182766
OK,118,40,666,118,2014-10-02T07:00:00,21,28221880,182766
OK,118,40,666,118,2014-10-02T07:05:00,15,28222025,182766
OK,126,38,666,126,2014-10-02T07:10:00,10,28222474,182766
OK,129,37,666,129,2014-10-02T07:15:00,8,28222923,182766
OK,127,37,666,127,2014-10-02T07:20:00,0,28223354,182766
OK,103,46,666,103,2014-10-02T07:25:00,3,28223789,182766
OK,103,46,666,103,2014-10-02T07:30:00,1,28224234,182766
OK,115,41,666,115,2014-10-02T07:35:00,11,28224592,182766
OK,105,45,666,105,2014-10-02T07:40:00,4,28225041,182766
OK,147,32,666,147,2014-10-02T07:45:00,0,28225453,182766
OK,120,40,666,120,2014-10-02T07:50:00,14,28225812,182766
OK,135,35,666,135,2014-10-02T07:55:00,13,28226261,182766
OK,146,32,666,146,2014-10-02T08:00:00,8,28226702,182766
OK,114,42,666,114,2014-10-02T08:05:00,7,28227151,182766
OK,137,35,666,137,2014-10-02T08:10:00,1,28227566,182766
OK,101,47,666,101,2014-10-02T08:15:00,11,28228015,182766
OK,101,47,666,101,2014-10-02T08:20:00,4,28228374,182766
OK,114,42,666,114,2014-10-02T08:25:00,3,28228823,182766
OK,103,46,666,103,2014-10-02T08:30:00,0,28229233,182766
OK,118,40,666,118,2014-10-02T08:35:00,10,28229682,182766
OK,130,37,666,130,2014-10-02T08:40:00,3,28230032,182766
OK,130,37,666,130,2014-10-02T08:45:00,0,28230481,182766
OK,108,44,666,108,2014-10-02T08:50:00,5,28230847,182766
OK,115,41,666,115,2014-10-02T08:55:00,2,28231294,182766
OK,128,37,666,128,2014-10-02T09:00:00,7,28231719,182766
OK,131,36,666,131,2014-10-02T09:05:00,3,28232166,182766
OK,133,36,666,133,2014-10-02T09:15:00,0,28232510,182766
OK,133,36,666,133,2014-10-02T09:20:00,0,28232959,182766
OK,121,39,666,121,2014-10-02T09:25:00,12,28233408,182766
OK,111,43,666,111,2014-10-02T09:30:00,3,28233832,182766
OK,116,41,666,116,2014-10-02T09:35:00,3,28234279,182766
OK,118,40,666,118,2014-10-02T09:40:00,2,28234614,182766
OK,136,35,666,136,2014-10-02T09:45:00,5,28235063,182766
OK,136,35,666,136,2014-10-02T09:50:00,1,28235490,182766
OK,136,35,666,136,2014-10-02T09:55:00,6,28235939,182766
OK,103,46,666,103,2014-10-02T10:00:00,1,28236382,182766
OK,103,46,666,103,2014-10-02T10:05:00,0,28236829,182766
OK,111,43,666,111,2014-10-02T10:10:00,8,28237231,182766
OK,106,45,666,106,2014-10-02T10:15:00,7,28237679,182766
OK,108,44,666,108,2014-10-02T10:20:00,11,28238128,182766
OK,128,37,666,128,2014-10-02T10:25:00,7,28238575,182766
OK,135,35,666,135,2014-10-02T10:30:00,0,28239016,182766
OK,121,39,666,121,2014-10-02T10:35:00,6,28239465,182766
OK,120,40,666,120,2014-10-02T10:40:00,8,28239895,182766
OK,108,44,666,108,2014-10-02T10:45:00,7,28240344,182766
OK,102,47,666,102,2014-10-02T10:50:00,2,28240788,182766
OK,115,41,666,115,2014-10-02T10:55:00,9,28241237,182766
OK,101,47,666,101,2014-10-02T11:00:00,2,28241669,182766
OK,87,55,666,87,2014-10-02T11:05:00,0,28242117,182766
OK,116,41,666,116,2014-10-02T11:10:00,6,28242513,182766
OK,104,46,666,104,2014-10-02T11:15:00,0,28242962,182766
OK,124,38,666,124,2014-10-02T11:20:00,7,28243411,182766
OK,124,38,666,124,2014-10-02T11:25:00,5,28243736,182766
OK,124,38,666,124,2014-10-02T11:30:00,0,28244174,182766
OK,100,48,666,100,2014-10-02T11:35:00,16,28244603,182766
OK,100,48,666,100,2014-10-02T11:40:00,13,28245052,182766
OK,126,38,666,126,2014-10-02T11:45:00,0,28245501,182766
OK,108,44,666,108,2014-10-02T11:50:00,8,28245907,182766
OK,116,41,666,116,2014-10-02T11:55:00,10,28246356,182766
OK,126,38,666,126,2014-10-02T12:00:00,8,28246793,182766
OK,135,35,666,135,2014-10-02T12:05:00,3,28247241,182766
OK,135,35,666,135,2014-10-02T12:10:00,0,28247688,182766
OK,112,42,666,112,2014-10-02T12:15:00,5,28248118,182766
OK,102,47,666,102,2014-10-02T12:20:00,4,28248567,182766
OK,115,41,666,115,2014-10-02T12:25:00,7,28249014,182766
OK,119,40,666,119,2014-10-02T12:30:00,2,28249442,182766
OK,112,42,666,112,2014-10-02T12:35:00,9,28249886,182766
OK,103,46,666,103,2014-10-02T12:40:00,4,28250272,182766
OK,113,42,666,113,2014-10-02T12:45:00,12,28250703,182766
OK,150,32,666,150,2014-10-02T13:20:00,8,28251563,182766
OK,138,34,666,138,2014-10-02T13:30:00,6,28252028,182766
OK,128,37,666,128,2014-10-02T13:35:00,2,28252165,182766
OK,128,37,666,128,2014-10-02T13:40:00,0,28252612,182766
OK,132,36,666,132,2014-10-02T13:45:00,9,28253054,182766
OK,122,39,666,122,2014-10-02T13:50:00,6,28253471,182766
OK,135,35,666,135,2014-10-02T13:55:00,10,28253920,182766
OK,109,44,666,109,2014-10-02T14:10:00,5,28254651,182766
OK,114,42,666,114,2014-10-02T14:15:00,7,28254774,182766
OK,127,37,666,127,2014-10-02T14:20:00,10,28255223,182766
OK,116,41,666,116,2014-10-02T14:25:00,3,28255672,182766
OK,133,36,666,133,2014-10-02T14:30:00,15,28256100,182766
OK,123,39,666,123,2014-10-02T14:35:00,4,28256549,182766
OK,128,37,666,128,2014-10-02T14:40:00,12,28256977,182766